DECAYED

CZ-6A DEB, 55885 (Decayed)

Orbit data source: Space-Track

CZ-6A DEB, 55885 was space debris in SSO originally from a launch on Fri, 11 Nov 2022 UTC launched from the Taiyaun Space Center, China (TSC). Debris objects in space refer to the collection of defunct objects orbiting the Earth. Examples of debris include non-operational satellites, rocket bodies, and fragments generated from explosions, collisions, or faulty payload assembly.

Not visible in the next 10 days
Identifier
55885, 2022-151AAH
Orbit
Decayed
Last TLE update
1 month ago
Origin
Manufacturer
SAST
Mission
Decayed spacecraft
Bus & Motor
Unknown
Mass
Unknown
Launch date (UTC)
2022-11-11 (3 years ago)
Launch vehicle
Unknown
Launch site
Taiyaun Space Center, China (TSC)
Object type
Payload
Rocket body
Debris
Shape & HBR
Unknown
Radar Cross Section
Small (<0.1 m²)

Expand to show TLE details & history

TLE from 1 month ago
0 CZ-6A DEB
1 55885U 22151AAH 25092.10760857  .02086384  00000-0  26615-1 0  9996
2 55885  98.5867 144.1619 0015872 203.8363 156.2155 15.56062658 47943
Epoch: 2025-04-02T02:34Z
Definitive object data (Epoch: 2025-04-02T02:34:57.38Z)
Latitude
0.00001°
Longitude
-85.27673°
Altitude
412.016 km
Speed
7.658 km/s
True Right ascension
09h 36m 38s
True Declination
0° 00' 00"
Sunlit
Object was in full shadow at TLE epoch
Visualization observer readout
Visualization observer readout
Orbital elements
Apogee altitude
406.791 km
Perigee altitude
385.287 km
Semi-major axis
6,774.176 km
Eccentricity
0.0015872
Inclination
98.5867°
RAAN
144.1619°
Arg. of periapsis
203.8363°
True anomaly
156.28872°
Mean anomaly
156.2155°
Eccentric anomaly
156.25212°
Mean motion
3.89277 °/min
BSTAR
0.026615
Orbital period
92.48 mins
Loading maneuver chart data...
Loading SW <> Apogee altitude chart data...
Loading historical data...
Loading historical data...
Loading historical data...
Loading historical data...
Loading historical data...
Loading historical data...
Loading historical data...

CZ-6A DEB Visibility forecast

Observer location: undefined°, undefined°

This satellite is decayed
Span
Click to sort rows by Start time (UTC) header in descending order
Start Az.
Max El. time (UTC)
Max El. Az.
Max El.
End time (UTC)
End Az.
|